Regional Weather Roundup
Issued by NWS

Home | Current Version | Previous Version | Graphics & Text | Print | Product List | Glossary On
Versions: 1 2 3 4 5 6 7 8 9 10 11 12 13 14 15 16 17 18 19 20 21 22 23 24 25 26 27 28 29 30 31 32 33 34 35 36 37 38 39 40 41 42 43 44 45 46 47 48 49 50
000
ASUS45 KTFX 270710
RWRMT
MONTANA REGIONAL WEATHER ROUNDUP
NATIONAL WEATHER SERVICE GREAT FALLS MT
100 AM MDT SAT AUG 27 2016

NOTE: "FAIR" INDICATES FEW OR NO CLOUDS BELOW 12000 FEET WITH NO
SIGNIFICANT WEATHER AND/OR OBSTRUCTIONS TO VISIBILITY.

MTZ001>007-043-270800-
WEST OF THE DIVIDE

CITY           SKY/WX    TMP DP  RH WIND       PRES   REMARKS
KALISPELL      CLOUDY    56  46  69 N7        29.86F
MISSOULA       CLOUDY    60  41  49 CALM      29.93F
BUTTE          CLOUDY    45  29  53 SE6       30.05F
MULLAN PASS    CLOUDY    58  31  35 VRB5      30.03F
DEER LODGE       N/A     46  34  61 CALM      30.02F
EUREKA           N/A     66  43  42 SE9       29.82F
HAMILTON         N/A     57  36  44 S6        29.96S
LIBBY            N/A     63  39  42 CALM      29.84F
PLAINS           N/A     58  42  55 MISG      29.89F
RONAN            N/A     55  43  64 CALM      29.94F
$$

MTZ008-052>055-270800-
SOUTHWEST MONTANA

CITY           SKY/WX    TMP DP  RH WIND       PRES   REMARKS
BOZEMAN        CLOUDY    47  38  71 SE5       30.00S
DILLON         CLOUDY    51  29  42 S8        30.02S
W YELLOWSTONE  CLEAR     37  27  65 CALM      30.11F
ENNIS          CLEAR     46  28  49 CALM      30.08S
THREE FORKS      N/A     47  32  56 CALM      29.98S
TWIN BRIDGES     N/A     48  31  52 CALM      30.01S
$$

MTZ009-010-012-014-046-048-049-054-270800-
EAST SLOPES AND CENTRAL MONTANA

CITY           SKY/WX    TMP DP  RH WIND       PRES   REMARKS
CUT BANK       CLOUDY    53  40  61 SE8       29.86F
GREAT FALLS    PTCLDY    51  39  63 S9        29.90F
HELENA         PTCLDY    58  36  43 CALM      29.94F
CHOTEAU          N/A     55  39  54 S6        29.91F
CONRAD           N/A     52  45  77 S6        29.91F
$$

MTZ011-013-016-021-045-047-050-051-270800-
NORTH CENTRAL MONTANA

CITY           SKY/WX    TMP DP  RH WIND       PRES   REMARKS
HAVRE          CLEAR     52  44  74 E3        29.86F
LEWISTOWN      CLOUDY    50  43  77 SE7       29.96F
N BAR RANCH      N/A     46  41  81 W5        30.02S
CHINOOK          N/A     54  46  76 E6        29.88F
$$

MTZ017>020-022>027-061-062-270800-
NORTHEAST MONTANA

CITY           SKY/WX    TMP DP  RH WIND       PRES   REMARKS
GLASGOW        CLEAR     49  43  80 E8        29.93S
JORDAN           N/A     46  42  86 CALM      29.95F
SIDNEY         CLEAR     58  44  60 W8        29.94F
WOLF POINT     CLEAR     49  43  80 CALM      29.94F
POPLAR           N/A     52  46  82 CALM      29.95S
SCOBEY           N/A     42  35  76 CALM      29.93F
$$

MTZ028>42-056>058-270800-
SOUTHCENTRAL AND SOUTHEAST MONTANA

CITY           SKY/WX    TMP DP  RH WIND       PRES   REMARKS
BAKER          CLEAR     48  44  86 CALM      29.99F
BILLINGS       PTCLDY    54  40  59 CALM      29.96F
LIVINGSTON     CLEAR     46  37  71 S3        30.01S
MILES CITY     CLOUDY    58  43  57 CALM      29.96F
EKALAKA          N/A     58  46  64 SW3       29.97S
FORSYTH          N/A     59  45  58 SE3       29.96F
LAUREL           N/A     54  37  52 CALM      29.96F
ROUNDUP          N/A     54  39  56 W6        29.90S
$$

REGIONAL REPORTS...DAKOTAS

CITY           SKY/WX    TMP DP  RH WIND       PRES   REMARKS
WILLISTON      CLOUDY    54  45  71 NE3       29.94S
MINOT          PTCLDY    60  54  80 S9        29.91F
DICKINSON      LGT RAIN  53  47  79 NW14      29.98S
CROSBY           N/A     48  48 100 SW6       29.95S
WATFORD CITY     N/A     52  50  93 CALM      29.95S
BISMARCK       CLEAR     53  51  93 CALM      29.99F
GRAND FORKS    CLOUDY    56  52  86 S7        30.00F
FARGO          CLOUDY    63  57  81 SE6       30.02F
BUFFALO SD       N/A     52  48  86 S8        29.93F
RAPID CITY     LGT RAIN  53  52  96 E7        30.02F
$$

REGIONAL REPORTS...WYOMING/IDAHO/WASHINGTON

CITY           SKY/WX    TMP DP  RH WIND       PRES   REMARKS
GILLETTE       CLOUDY    53  48  83 W7        30.05R
SHERIDAN       CLOUDY    58  45  62 E7        30.00F
BUFFALO WY     CLOUDY    55  39  54 S3        30.06F
CODY           CLOUDY    54  43  66 SW6       30.03F
YELLOWSTONE LA   N/A     39  31  72 NW3       30.19S
IDAHO FALLS    CLEAR     55  33  43 S5        30.01F
SALMON         PTCLDY    52  37  58 CALM      29.99R
BOISE          CLEAR     65  32  29 SE8       29.91S
SPOKANE        CLOUDY    72  39  30 SW13      29.82F
$$

REGIONAL REPORTS...ALBERTA

CITY           SKY/WX    TMP DP  RH WIND       PRES   REMARKS
EDMONTON       LGT RAIN  59  54  82 S3        29.69F
CALGARY        MOCLDY    57  46  67 S6        29.75F
LETHBRIDGE     CLEAR     61  43  51 S18       29.76F
MEDICINE HAT   PTCLDY    59  45  58 VRB2      29.79F
WATERTON GATE    N/A     63  41  45 SW10        N/A
MILK RIVER       N/A     52  39  62 S7          N/A
$$

REGIONAL REPORTS...SASKATCHEWAN

CITY           SKY/WX    TMP DP  RH WIND       PRES   REMARKS
SWIFT CURRENT  CLEAR     46  43  87 S7        29.87F
REGINA         CLEAR     45  45 100 SW8       29.89S
SASKATOON      CLEAR     50  50 100 S7        29.86F
CYPRESS HILLS    N/A     46  41  81 S9          N/A
VAL MARIE        N/A     37  36  93 NE2         N/A
ROCKGLEN         N/A     46  43  87 S5          N/A
$$



USA.gov is the U.S. government's official web portal to all federal, state and local government web resources and services.